FW6880 Weather Reports


time (UTC)temp
C
wind
direction
speed
KPH
gust
KPH
rain 1hr
cm
rain 24hr
cm
rain mn
cm
humidity
%
barometer
mb
20211017151619 17 27 4.8 19.3 0.00 0.00 0.00 57 1025.6
20211017150145 16 60 4.8 11.3 0.00 0.00 0.00 58 1025.7
20211017144541 16 55 3.2 14.5 0.00 0.00 0.00 60 1025.7
20211017143040 15 22 3.2 14.5 0.00 0.00 0.00 65 1025.6
20211017141522 14 28 3.2 11.3 0.00 0.00 0.00 68 1025.5
20211017140008 13 30 3.2 14.5 0.00 0.00 0.00 69 1025.4
20211017133152 12 23 1.6 4.8 0.00 0.00 0.00 76 1025.4
20211017131633 11 34 1.6 4.8 0.00 0.00 0.00 79 1025.1
20211017130052 10 38 1.6 3.2 0.00 0.00 0.00 82 1024.9
20211017124625 10 38 1.6 3.2 0.00 0.00 0.00 83 1024.7
20211017123134 10 51 0.0 3.2 0.00 0.00 0.00 83 1024.6
20211017121527 10 15 0.0 4.8 0.00 0.00 0.00 83 1024.6
20211017120023 10 340 0.0 0.0 0.00 0.00 0.00 82 1024.7
20211017114505 10 340 0.0 3.2 0.00 0.00 0.00 82 1024.4
20211017111614 10 340 1.6 3.2 0.00 0.00 0.00 82 1024.3
20211017110220 10 20 1.6 4.8 0.00 0.00 0.00 82 1024.0
20211017104551 10 24 1.6 3.2 0.00 0.00 0.00 81 1023.9
20211017103102 10 24 0.0 3.2 0.00 0.00 0.00 80 1023.8
20211017101547 10 24 0.0 3.2 0.00 0.00 0.00 81 1023.6
20211017100052 10 24 0.0 3.2 0.00 0.00 0.00 80 1023.6
20211017094615 10 24 1.6 3.2 0.00 0.00 0.00 80 1023.6
20211017093037 11 24 0.0 3.2 0.00 0.00 0.00 79 1023.6
20211017091603 11 17 0.0 3.2 0.00 0.00 0.00 78 1023.3
20211017090042 11 17 0.0 3.2 0.00 0.00 0.00 77 1023.1
20211017084531 11 355 1.6 4.8 0.00 0.00 0.00 77 1023.1
20211017083024 11 10 3.2 9.7 0.00 0.00 0.00 76 1023.1
20211017081518 11 336 1.6 4.8 0.00 0.00 0.00 76 1023.2
20211017080011 11 355 1.6 9.7 0.00 0.00 0.00 76 1023.2
20211017074634 11 360 1.6 4.8 0.00 0.00 0.00 75 1023.3
20211017073245 11 360 1.6 4.8 0.00 0.00 0.00 74 1023.2
20211017071631 12 360 1.6 4.8 0.00 0.00 0.00 74 1023.4
20211017070123 12 360 0.0 3.2 0.00 0.00 0.00 73 1023.3
20211017064646 12 360 0.0 3.2 0.00 0.00 0.00 72 1023.3
20211017063039 12 360 0.0 4.8 0.00 0.00 0.00 71 1023.5
20211017061536 12 360 1.6 4.8 0.00 0.00 0.00 70 1023.3
20211017060040 12 360 0.0 4.8 0.00 0.00 0.00 70 1023.2
20211017054531 13 360 1.6 4.8 0.00 0.00 0.00 69 1023.2
20211017053039 13 35 1.6 4.8 0.00 0.00 0.00 69 1023.3
20211017051546 13 351 1.6 6.4 0.00 0.00 0.00 68 1023.2
20211017050013 13 360 1.6 4.8 0.00 0.00 0.00 67 1023.4
20211017043137 14 360 1.6 6.4 0.00 0.00 0.00 64 1023.5
20211017041722 14 360 1.6 6.4 0.00 0.00 0.00 63 1023.4
20211017040058 15 355 1.6 8.0 0.00 0.00 0.00 62 1023.3
20211017034653 15 15 3.2 8.0 0.00 0.00 0.00 61 1023.3
20211017033046 15 19 3.2 6.4 0.00 0.00 0.00 60 1023.5
20211017031606 15 355 3.2 8.0 0.00 0.00 0.00 60 1023.4
20211017030109 15 16 3.2 6.4 0.00 0.00 0.00 60 1023.4
20211017024607 15 342 1.6 6.4 0.00 0.00 0.00 60 1023.3
20211017023045 16 360 1.6 6.4 0.00 0.00 0.00 59 1023.0
20211017021613 16 9 3.2 8.0 0.00 0.00 0.00 58 1022.8
20211017020056 16 13 3.2 12.9 0.00 0.00 0.00 57 1022.5
20211017014545 16 360 3.2 8.0 0.00 0.00 0.00 55 1022.4
20211017013016 17 44 4.8 11.3 0.00 0.00 0.00 55 1022.1
20211017011524 17 360 4.8 9.7 0.00 0.00 0.00 54 1021.9
20211017010024 17 335 4.8 16.1 0.00 0.00 0.00 55 1021.7
20211017003122 17 346 3.2 9.7 0.00 0.00 0.00 55 1021.3
20211017001617 17 38 3.2 16.1 0.00 0.00 0.00 54 1021.2
20211017000247 18 39 3.2 12.9 0.00 0.00 0.00 52 1021.1
20211016234600 18 9 4.8 12.9 0.00 0.00 0.00 50 1020.8
20211016233105 18 32 3.2 12.9 0.00 0.00 0.00 50 1020.6
20211016231557 19 40 4.8 16.1 0.00 0.00 0.00 50 1020.3
20211016230048 20 12 3.2 11.3 0.00 0.00 0.00 49 1020.1
20211016224535 20 49 3.2 14.5 0.00 0.00 0.00 47 1019.9
20211016223027 20 5 4.8 14.5 0.00 0.00 0.00 45 1019.6
20211016221535 21 322 8.0 14.5 0.00 0.00 0.00 43 1019.2
20211016220026 21 38 6.4 12.9 0.00 0.00 0.00 44 1019.3
20211016214546 22 16 6.4 20.9 0.00 0.00 0.00 44 1019.1
20211016213013 22 321 6.4 16.1 0.00 0.00 0.00 44 1018.9
20211016211503 22 341 6.4 16.1 0.00 0.00 0.00 42 1019.0
20211016204810 23 11 8.0 25.7 0.00 0.00 0.00 41 1019.2
20211016203203 23 25 8.0 25.7 0.00 0.00 0.00 43 1019.0
20211016201658 23 335 6.4 32.2 0.00 0.00 0.00 45 1018.9
20211016200114 23 29 6.4 19.3 0.00 0.00 0.00 49 1018.9
20211016194609 23 48 6.4 17.7 0.00 0.00 0.00 49 1019.1
20211016193050 23 18 6.4 19.3 0.00 0.00 0.00 49 1018.9
20211016191604 23 31 6.4 17.7 0.00 0.00 0.00 49 1018.9
20211016190054 22 39 4.8 17.7 0.00 0.00 0.00 52 1019.0
20211016184536 23 38 6.4 14.5 0.00 0.00 0.00 53 1019.2
20211016183100 23 76 6.4 20.9 0.00 0.00 0.00 51 1019.4
20211016181529 22 63 8.0 17.7 0.00 0.00 0.00 52 1019.4
20211016180034 22 5 3.2 16.1 0.00 0.00 0.00 56 1019.4
20211016174517 22 11 8.0 16.1 0.00 0.00 0.00 58 1019.6
20211016173004 23 327 3.2 16.1 0.00 0.00 0.00 61 1019.7
20211016171654 22 348 6.4 19.3 0.00 0.00 0.00 61 1019.8
20211016170157 22 19 6.4 17.7 0.00 0.00 0.00 62 1019.9
20211016164623 22 294 3.2 16.1 0.00 0.00 0.00 64 1019.9
20211016163140 22 40 6.4 16.1 0.00 0.00 0.00 64 1020.1
20211016161631 22 337 6.4 19.3 0.00 0.00 0.00 71 1020.1
20211016160126 22 347 3.2 12.9 0.00 0.00 0.00 71 1019.9
20211016154539 21 355 3.2 16.1 0.00 0.00 0.00 76 1019.9
20211016153044 20 17 3.2 12.9 0.00 0.00 0.00 82 1019.9